This is the latest recevied weather packets stored in our database for station/object W7TTE. If no packets are shown the sender has not sent any weather packets the latest 10 day(s).
| Time | Temp. | Humidity | Pressure | Rain* | Wind** | Luminosity | Snow |
|---|---|---|---|---|---|---|---|
| 1777383923 | 11.67° C | 40% | 1018.3 hPa | 0 mm | - | 34 W/m² | - |
| 1777383619 | 11.67° C | 40% | 1018.2 hPa | 0 mm | - | 32 W/m² | - |
| 1777383315 | 11.67° C | 39% | 1018.4 hPa | 0 mm | - | 30 W/m² | - |
| 1777383012 | 11.11° C | 42% | 1018.1 hPa | 0 mm | - | 28 W/m² | - |
| 1777382709 | 11.11° C | 41% | 1018 hPa | 0 mm | - | 26 W/m² | - |
| 1777382403 | 11.11° C | 43% | 1017.9 hPa | 0 mm | - | 23 W/m² | - |
| 1777382101 | 11.11° C | 45% | 1017.9 hPa | 0 mm | - | 21 W/m² | - |
| 1777381797 | 11.11° C | 48% | 1017.7 hPa | 0 mm | - | 17 W/m² | - |
| 1777381496 | 11.11° C | 46% | 1017.4 hPa | 0 mm | - | 15 W/m² | - |
| 1777381193 | 11.11° C | 45% | 1017.7 hPa | 0 mm | - | 11 W/m² | - |
| 1777380890 | 11.67° C | 45% | 1017.6 hPa | 0 mm | - | 8 W/m² | - |
| 1777380587 | 11.11° C | 43% | 1017.3 hPa | 0 mm | - | 5 W/m² | - |
| 1777380283 | 11.11° C | 43% | 1017.4 hPa | 0 mm | - | 3 W/m² | - |
| 1777379979 | 11.67° C | 43% | 1017.3 hPa | 0 mm | - | 1 W/m² | - |
| 1777379675 | 11.67° C | 43% | 1017.2 hPa | 0 mm | - | 1 W/m² | - |
| 1777379371 | 11.67° C | 43% | 1017.3 hPa | 0 mm | - | 0 W/m² | - |
| 1777379067 | 12.22° C | 44% | 1017.2 hPa | 0 mm | - | 0 W/m² | - |
| 1777378761 | 12.22° C | 43% | 1017.2 hPa | 0 mm | - | 0 W/m² | - |
| 1777378459 | 12.78° C | 41% | 1017.2 hPa | 0 mm | - | 0 W/m² | - |
| 1777378154 | 12.78° C | 41% | 1017.2 hPa | 0 mm | - | 0 W/m² | - |
| 1777377847 | 12.78° C | 41% | 1017 hPa | 0 mm | - | 0 W/m² | - |
| 1777377547 | 12.78° C | 40% | 1017.1 hPa | 0 mm | - | 0 W/m² | - |
| 1777377241 | 12.22° C | 39% | 1017 hPa | 0 mm | - | 0 W/m² | - |
| 1777376940 | 12.22° C | 40% | 1016.9 hPa | 0 mm | - | 0 W/m² | - |
| 1777376636 | 12.22° C | 40% | 1017 hPa | 0 mm | - | 0 W/m² | - |
* Rain latest hour (hover to see other rain measurements)
** Current wind speed in m/s (hover to see current wind gust speed)